Regional Weather Roundup
Issued by NWS

Home | Current Version | Previous Version | Text Only | Print | Product List | Glossary On
Versions: 1 2 3 4 5 6 7 8 9 10 11 12 13 14 15 16 17 18 19 20 21 22 23 24 25 26 27 28 29 30 31 32 33 34 35 36 37 38 39 40 41 42 43 44 45 46 47 48 49 50
000
ASUS43 KDMX 261906
RWRIA

WEATHER ROUNDUP FOR IOWA
NATIONAL WEATHER SERVICE DES MOINES IA
200 PM CDT MON JUN 26 2017

NOTE: "FAIR" INDICATES FEW OR NO CLOUDS BELOW 12,000 FEET WITH NO
SIGNIFICANT WEATHER AND/OR OBSTRUCTIONS TO VISIBILITY.

* - THESE STATIONS ARE NOT NWS STATIONS...THUS NOT UNDER NWS
QUALITY CONTROL.  THEY ALSO DO NOT REPORT WEATHER SUCH
AS PRECIPITATION OR FOG.

IAZ001>003-012>014-020>022-031>034-043>046-262000-
   NORTHWEST IOWA

CITY           SKY/WX    TMP DP  RH WIND       PRES   REMARKS
CARROLL *      MOSUNNY   70  48  46 N7G14     30.16F
CHEROKEE *     MOSUNNY   69  47  45 NE10      30.18F
DENISON *      PTSUNNY   70  50  49 NE8G14    30.18S
LE MARS *      MOSUNNY   70  45  40 N12       30.19F
ORANGE CITY *  SUNNY     68  45  42 N7        30.20S
SHELDON *      SUNNY     68  43  40 NE13      30.18F
SIOUX CITY     MOSUNNY   74  49  41 N10       30.17F
SPENCER        SUNNY     69  39  33 N9G20     30.19F
STORM LAKE *     N/A     68  45  42 N14G20    30.18F
$$

IAZ055>058-069>071-079>083-090>094-262000-
   SOUTHWEST IOWA

CITY           SKY/WX    TMP DP  RH WIND       PRES   REMARKS
ATLANTIC *     MOSUNNY   72  54  53 VRB6      30.15F
AUDUBON *      MOSUNNY   70  54  56 NW3       30.17F
CLARINDA *     PTSUNNY   70  55  60 CALM      30.18F
COUNCIL BLFS * MOSUNNY   72  55  56 VRB5      30.15F
CRESTON *      MOSUNNY   70  55  60 VRB5G12   30.17F
HARLAN  *      SUNNY     72  50  46 VRB5      30.19F
LAMONI         CLOUDY    68  56  65 SW14      30.17F
RED OAK *      PTSUNNY   72  57  60 VRB6      30.16F
SHENANDOAH *   PTSUNNY   70  59  68 SW9       30.17S
$$

IAZ047>049-059>061-072>074-084-262000-
   CENTRAL IOWA

CITY           SKY/WX    TMP DP  RH WIND       PRES   REMARKS
AMES           MOSUNNY   73  53  49 NW8       30.15F
ANKENY *       PTSUNNY   70  54  56 W5        30.16F
BOONE *        MOSUNNY   72  48  43 N14       30.15F
CHARITON *     CLOUDY    68  52  56 CALM      30.16F
DES MOINES     MOSUNNY   70  54  56 CALM      30.15F
GRINNELL*      PTSUNNY   70  53  53 W8G16     30.16F
KNOXVILLE *    MOSUNNY   68  54  60 W10       30.15F
MARSHALLTOWN   MOSUNNY   70  49  47 NW13G20   30.14F
NEWTON *       SUNNY     68  55  64 W9        30.16F
PELLA *        SUNNY     70  55  60 W6        30.18F
PERRY *          N/A     71  52  52 CALM      30.16F
$$

IAZ004>006-015-016-023>025-035-036-262000-
   NORTH CENTRAL IOWA

CITY           SKY/WX    TMP DP  RH WIND       PRES   REMARKS
ALGONA *       MOSUNNY   68  41  37 NW10G18   30.18F
CLARION *        N/A     68  41  37 N8G16     30.17F
ESTHERVILLE    MOSUNNY   66  43  43 NW8G18    30.19F
FORT DODGE *   MOSUNNY   72  46  40 N9        30.18F
MASON CITY     SUNNY     69  40  34 N15       30.18F
FOREST CITY *    N/A     72  27  18 N12G18    30.18F
WEBSTER CITY * MOSUNNY   68  45  42 NW9G15    30.15F
IOWA FALLS *   PTSUNNY   71  45  39 NW12G18   30.18S
$$

IAZ007>011-017>019-026>030-037>042-050>054-066-262000-
   NORTHEAST IOWA

CITY           SKY/WX    TMP DP  RH WIND       PRES   REMARKS
CEDAR RAPIDS   MOSUNNY   71  50  47 NW18G24   30.12F
CHARLES CITY * SUNNY     68  39  34 NW16      30.16F
CLINTON *      MOSUNNY   71  49  45 NW16G23   30.11F
DECORAH *      MOSUNNY   64  45  48 NW9G17    30.14S
DUBUQUE        MOSUNNY   67  45  45 NW16G22   30.12F
MONTICELLO *   MOSUNNY   70  45  40 W12G22    30.12F
OELWEIN *      MOSUNNY   68  41  37 NW15G28   30.15F
WATERLOO       MOSUNNY   70  40  33 NW13G23   30.14F
$$

IAZ064-065-067-068-078-262000-
   EAST CENTRAL IOWA

CITY           SKY/WX    TMP DP  RH WIND       PRES   REMARKS
DAVENPORT      PTSUNNY   71  49  45 W16       30.12F HAZE
IOWA CITY      PTSUNNY   68  56  65 NW8       30.15F
MT. PLEASANT * CLOUDY    68  52  55 W10       30.16F
MUSCATINE *    MOSUNNY   73  48  40 W18G29    30.13F
QUAD CITIES    CLOUDY    73  53  49 W15G25    30.11F
$$

IAZ062-063-075>077-085>089-095>099-262000-
   SOUTHEAST IOWA

CITY           SKY/WX    TMP DP  RH WIND       PRES   REMARKS
BURLINGTON     PTSUNNY   69  53  56 VRB6      30.16F
FAIRFIELD *    PTSUNNY   70  50  49 SW12G18   30.15F
FORT MADISON * PTSUNNY   70  57  64 SW10      30.17F
KEOKUK *       MOSUNNY   70  54  56 SW13G18   30.16F
OSKALOOSA *      N/A     69  55  62 W6        30.17F
CENTERVILLE *    N/A     70  54  56 SW3       30.18F
OTTUMWA        PTSUNNY   71  54  54 W9        30.16F
WASHINGTON *   MOSUNNY   72  52  49 W17G25    30.16F
$$

ABBREVIATIONS USED IN REMARKS
   TC - TEMPERATURES IN CELSIUS
  WCI - WIND CHILL INDEX
   HX - HEAT INDEX
  VSB - VISIBILITY
$$




USA.gov is the U.S. government's official web portal to all federal, state and local government web resources and services.